View from above orbital plane
|
View from above satellite
|
Ground track
|
The orbit data is extracted from the following two-line orbital elements,
1 53U 60009E 19346.74887858 -.00000020 +00000-0 +62535-3 0 9998
2 53 047.2758 117.8311 0098147 245.5007 113.5522 12.17234419645702
Epoch (UTC): | 12 December 2019 17:58:23 |
Eccentricity: | 0.0098147 |
inclination: | 47.2758° |
perigee height: | 1526 km |
apogee height: | 1683 km |
right ascension of ascending node: | 117.8311° |
argument of perigee: | 245.5007° |
revolutions per day: | 12.17234419 |
mean anomaly at epoch: | 113.5522° |
orbit number at epoch: | 64570 |
The dashed part of the orbit path shows where the satellite is in the earth's shadow,
|
|